SCP
0 0 0 0 0 0 0 0 0 0 0 0 0 0 0 0 0 0 0 0 0 0 0 0 0 0 0 0 0 0 0 0 0 0 0 0 0 0 0 0 0 0 0
0 0 0 0 0 0 0 0 0 0 0 0 0 0 0 0 0 0 0 0 0 0 0 0 0 0 0 0 0 0 0 0 0 0 0 0 0 0 0 0 0 0 0
0 0 0 0 0 0 0 0 0 0 0 0 0 0 0 0 0 0 0 0 0 0 0 0 0 0 0 0 0 0 0 0 0 0 0 0 0 0 0 0 0 0 0
0 0 0 0 0 0 0 0 0 0 0 0 0 0 0 0 0 0 0 0 0 0 0 0 0 0 0 0 0 0 0 0 0 0 0 0 0 0 0 0 0 0 0
0 0 0 0 0 0 0 0 0 0 0 0 0 0 0 0 0 0 0 0 0 0 0 0 0 0 0 0 0 0 0 0 0 0 0 0 0 0 0 0 0 0 0
0 0 0 0 0 0 0 0 0 0 0 0 0 0 0 0 0 0 0 0 0 0 0 0 0 0 0 0 0 0 0 0 0 0 0 0 0 0 0 0 0 0 0
0 0 0 0 0 0 0 0 0 0 0 0 0 0 0 0 0 0 0 0 0 0 0 0 0 0 0 0 0 0 0 0 0 0 0 0 0 0 0 0 0 0 0
0 0 0 0 0 0 0 0 0 0 0 0 0 0 0 0 0 0 0 0 0 0 0 0 0 0 0 0 -0 0 0 0 0 0 0 0 0 0 0 0 0 0 0
0 0 0 0 0 0 0 0 0 0 0 0 0 0 0 0 0 0 0 0 0 0 0 0 0 0 0 -0 -0 0 0 0 0 0 0 0 0 0 0 0 0 0 0
0 0 0 0 0 0 0 0 0 0 0 0 0 0 0 0 0 0 0 0 0 0 0 0 0 0 0 -0 -0 0 0 0 0 0 0 0 0 0 0 0 0 0 0
1 0 0 0 0 0 0 0 0 0 0 0 0 0 0 0 0 0 0 0 0 0 0 0 0 0 0 0 0 0 0 0 0 0 0 0 0 0 0 0 0 0 0
1 1 0 0 0 0 0 0 0 0 0 0 0 0 0 0 0 0 0 0 0 0 0 0 0 0 0 0 0 0 0 0 0 0 0 0 0 0 0 0 0 0 0
1 1 0 0 0 0 0 0 0 0 0 0 0 0 0 0 0 0 0 0 0 0 0 0 0 0 0 0 0 0 0 0 0 0 0 0 0 0 0 0 0 0 0
1 1 1 1 1 0 0 0 0 0 0 0 0 0 0 0 0 0 0 0 0 0 0 0 0 0 0 0 0 0 0 0 0 0 0 0 0 0 0 0 0 0 0
1 1 1 1 1 1 1 0 0 0 0 0 0 0 0 0 0 0 0 0 0 0 0 0 0 0 0 0 0 0 0 0 0 0 0 0 0 0 0 0 0 0 0
1 1 1 1 1 1 1 1 0 0 0 0 0 0 0 0 0 0 0 0 0 0 0 0 0 0 0 0 0 0 0 0 0 0 0 0 0 0 0 0 0 0 0
1 1 1 1 1 1 1 1 1 0 0 0 0 0 0 0 0 0 0 0 0 0 0 0 0 0 0 0 0 0 0 0 0 0 0 0 0 0 0 0 0 0 0
1 1 1 1 1 1 1 1 1 1 1 1 1 1 0 0 0 0 0 0 0 0 0 0 0 0 0 0 0 0 0 0 0 0 0 0 0 0 0 0 0 0 0
2 2 2 1 1 1 1 1 1 1 1 1 1 1 1 0 0 0 0 0 0 0 0 0 0 0 0 0 0 0 0 0 0 0 0 0 0 0 0 0 0 0 0
2 2 2 2 1 1 1 1 1 1 1 1 1 1 1 1 0 0 0 0 0 0 0 0 0 0 0 0 0 0 0 0 0 0 0 0 0 0 0 0 0 0 0
2 2 2 2 2 1 1 1 1 1 1 1 1 1 1 1 0 0 0 0 0 0 0 0 0 0 0 0 0 0 0 0 0 0 0 0 0 0 0 0 0 0 0
2 2 2 2 2 1 1 1 1 1 1 1 1 1 1 1 1 0 0 0 0 0 0 0 0 0 0 0 0 0 0 0 0 0 0 0 0 0 0 0 0 0 0
2 2 2 2 2 1 1 1 1 1 1 1 1 1 1 1 1 1 1 1 1 1 0 0 0 0 0 0 0 0 0 0 0 0 0 0 0 0 0 0 0 0 0
2 2 2 2 2 2 1 1 1 1 1 1 1 1 1 1 1 1 1 1 1 1 0 0 0 0 0 0 0 0 0 0 0 0 0 0 0 0 0 0 0 0 0
1 1 2 2 2 1 1 1 1 1 1 1 1 1 1 1 0 0 1 1 1 0 0 0 0 0 0 0 0 0 0 0 0 0 0 0 0 0 0 0 0 0 0
1 1 2 2 2 1 1 1 1 1 1 1 1 1 1 1 0 0 0 1 1 0 0 0 0 0 0 0 0 0 0 0 0 0 0 0 0 0 0 0 0 0 0
Wind_Speed
14 15 15 15 15 15 15 15 15 14 14 15 15 16 16 16 16 16 16 17 16 16 16 15 15 14 14 14 15 15 15 15 15 16 15 15 14 13 12 13 15 12 15
18 16 16 15 15 15 15 14 14 14 14 14 15 15 15 15 16 16 16 16 16 16 16 15 14 14 14 14 13 13 13 13 14 15 15 14 14 12 12 13 15 11 14
18 16 15 15 15 15 14 14 14 14 14 14 14 14 14 15 15 15 15 15 15 15 15 15 14 14 13 13 12 11 11 11 12 13 12 10 11 14 15 17 16 14 14
19 16 15 16 15 15 14 14 13 13 14 14 14 13 14 14 14 15 14 14 14 15 15 14 14 13 13 12 10 9 8 8 8 8 6 9 9 14 15 15 14 14 14
18 17 16 16 15 14 14 13 13 13 13 14 13 13 13 13 14 14 14 14 14 14 14 14 13 13 12 10 8 6 5 4 5 5 9 9 7 11 14 14 13 13 13
19 18 16 16 15 14 14 13 13 13 13 13 13 13 13 13 13 14 13 13 14 14 13 13 13 12 11 9 6 4 2 1 1 7 9 9 7 11 13 13 13 13 12
19 17 16 16 15 14 14 14 13 12 13 12 12 12 12 12 12 13 13 13 13 13 13 13 12 11 10 7 5 2 1 2 1 9 9 8 8 11 12 12 12 12 12
19 17 15 16 15 14 14 13 12 12 12 12 12 12 12 12 12 13 13 13 13 12 12 12 11 10 8 6 3 0 3 5 5 11 10 9 10 11 12 12 11 11 11
18 17 14 14 13 14 14 13 12 12 12 12 12 12 12 12 13 13 13 12 12 12 11 11 10 9 7 5 2 2 4 6 2 8 11 8 11 11 12 11 11 10 10
15 15 14 13 12 12 11 13 13 12 12 12 11 11 11 12 13 14 12 11 12 11 10 9 9 8 6 4 3 3 5 6 4 11 8 9 12 12 11 11 10 10 10
12 12 13 14 12 12 12 12 12 12 11 11 9 11 10 7 9 9 12 11 11 10 9 8 8 7 6 5 5 4 4 2 6 8 7 12 12 11 11 10 10 9 9
13 12 10 12 11 11 10 9 7 7 8 6 6 7 4 4 5 9 11 10 10 9 9 8 7 7 6 4 5 5 2 2 5 8 8 13 12 11 10 10 9 9 9
12 10 10 9 7 8 7 7 5 4 5 4 6 5 3 4 5 7 5 6 5 7 5 6 6 4 4 2 2 2 2 3 5 7 8 12 11 11 10 9 8 8 8
11 10 10 9 6 5 6 6 5 5 4 4 4 4 3 2 4 4 3 4 4 3 2 2 2 2 2 1 1 3 3 4 5 5 7 12 11 10 10 9 8 8 8
11 10 9 9 7 5 4 4 5 5 5 5 4 3 4 3 3 4 2 2 2 2 2 1 1 2 1 1 1 3 4 5 5 7 6 10 10 9 9 9 8 8 7
12 11 10 9 8 6 4 2 3 4 4 5 4 4 3 3 4 3 2 1 1 2 2 1 2 2 0 1 2 2 3 4 5 6 6 7 9 9 9 9 9 8 8
12 11 11 10 9 7 6 4 4 4 5 4 4 5 3 4 5 3 2 2 2 2 3 2 2 1 1 1 2 1 2 3 3 5 6 5 5 8 9 9 9 8 8
12 11 11 11 11 8 6 4 3 4 5 4 4 4 3 4 5 3 2 2 2 2 2 2 1 1 1 1 1 0 2 2 2 3 4 4 5 5 7 10 9 9 8
11 11 10 9 11 9 7 5 3 3 4 4 4 4 4 4 4 3 2 2 2 1 1 2 2 1 1 1 1 1 2 2 2 3 3 4 4 5 5 8 9 8 8
12 11 10 9 9 8 6 4 2 3 3 3 4 4 5 4 4 3 3 3 2 1 1 2 2 1 0 1 1 2 2 2 2 2 2 3 3 5 6 6 5 6 8
12 12 11 10 9 7 6 6 5 4 3 3 4 6 6 5 5 3 2 3 2 1 2 2 2 2 2 1 0 1 1 3 2 2 2 3 3 4 5 6 5 4 4
13 12 11 10 10 9 6 4 4 4 4 4 3 5 6 5 5 5 3 3 3 2 2 2 2 1 1 1 1 1 1 1 1 3 3 3 3 3 4 6 5 5 4
14 14 12 11 11 10 8 5 4 4 3 4 4 5 5 6 5 3 4 3 3 3 3 3 3 3 2 1 1 0 0 0 1 1 3 3 3 3 3 3 5 5 5
14 13 11 11 10 9 9 8 8 7 6 5 5 4 5 5 5 4 4 4 3 2 4 4 4 2 2 2 1 1 1 1 1 1 1 2 3 3 3 3 4 5 5
14 14 12 11 10 10 9 8 7 6 5 4 5 5 5 5 5 5 5 4 4 3 4 3 3 2 1 2 1 1 2 1 2 2 2 2 2 3 3 3 3 4 5
13 13 13 12 11 11 10 9 8 7 6 6 6 6 5 4 4 5 5 4 4 3 3 3 3 3 2 1 1 1 1 1 2 2 2 2 2 3 3 3 3 3 4
Wind_Direction
113 114 114 110 106 103 101 98 96 95 95 96 96 97 96 97 97 98 99 99 99 99 100 99 97 96 94 93 94 95 95 94 94 94 93 91 90 92 97 103 100 95 99
117 117 115 111 108 104 102 100 97 97 97 98 99 100 100 100 100 100 100 101 101 101 101 101 99 97 96 97 98 99 101 103 104 105 101 92 88 87 89 91 93 101 102
116 119 118 113 110 107 105 103 100 98 98 99 101 102 101 102 103 103 103 103 103 103 103 102 100 98 97 99 102 104 109 114 118 122 115 99 89 86 89 94 99 102 102
122 124 117 117 113 110 108 105 103 100 99 100 102 103 103 105 105 105 105 105 105 104 104 103 102 100 99 101 104 109 114 121 131 137 112 96 92 92 94 97 101 103 103
122 116 118 120 116 113 111 108 105 103 101 101 102 103 104 105 107 107 108 107 107 106 106 106 105 103 103 105 109 116 120 129 135 122 92 88 88 99 100 102 103 103 103
118 118 122 122 119 116 114 112 109 107 104 102 103 104 106 106 107 109 111 110 109 108 108 108 106 105 106 109 114 119 125 150 167 108 104 105 103 106 107 107 106 104 103
120 122 125 125 122 120 117 115 113 110 107 106 106 105 106 108 110 112 112 111 110 110 109 108 107 107 108 111 114 110 334 314 160 105 102 102 107 110 108 108 107 106 105
123 124 126 128 127 124 121 119 118 114 112 111 109 109 109 108 111 114 114 115 113 112 112 111 110 109 109 111 117 329 320 314 112 111 108 108 116 113 111 110 110 110 109
125 129 135 135 133 130 127 125 122 120 117 115 114 112 112 113 116 118 117 118 117 115 115 116 115 115 116 123 155 272 303 314 77 117 112 112 119 118 116 114 113 113 112
129 136 141 142 141 140 133 130 127 126 124 122 121 122 120 120 122 125 122 121 121 121 123 126 128 129 135 154 205 268 309 315 113 104 106 119 124 123 122 119 116 116 116
134 140 147 144 151 147 141 137 136 132 131 134 134 137 140 138 132 137 119 127 129 132 136 142 146 151 162 186 217 254 302 298 97 98 103 123 128 127 126 126 124 123 122
144 146 147 149 154 150 142 141 148 146 146 159 144 158 173 141 128 120 128 135 141 146 151 163 167 175 194 194 206 225 252 174 112 105 116 130 130 130 132 133 134 131 129
148 146 145 143 145 141 133 151 149 139 148 154 149 158 157 129 125 124 141 144 156 165 177 168 186 204 201 196 192 190 128 82 94 107 127 133 133 137 140 142 143 142 140
150 148 147 139 137 135 139 140 143 144 149 148 153 162 144 137 134 137 143 161 166 174 165 168 200 170 146 147 103 74 75 90 98 112 133 139 140 144 148 149 149 150 149
154 155 147 141 135 124 116 151 150 146 148 140 151 162 152 136 127 125 128 142 154 144 157 168 94 93 72 38 81 90 82 96 118 118 131 146 147 152 155 158 159 160 160
162 157 148 145 138 136 143 161 133 140 134 143 153 150 158 126 120 123 132 140 140 146 150 146 128 112 100 78 77 89 98 97 110 123 134 149 156 160 163 166 170 172 174
163 158 153 151 148 154 161 176 155 145 150 146 135 138 150 124 123 130 139 175 171 146 136 127 136 137 192 137 118 111 102 102 119 122 139 152 162 174 175 176 178 179 183
163 159 162 163 157 163 166 180 170 156 145 132 132 139 154 126 135 144 158 173 151 143 148 137 171 162 160 136 128 130 108 115 123 140 152 159 161 172 182 185 184 186 189
162 158 165 158 158 164 164 171 181 140 134 135 139 140 153 151 155 172 156 137 173 156 165 173 135 112 104 103 157 154 148 149 155 177 156 155 163 164 168 182 186 189 195
160 159 163 160 156 159 163 165 174 159 147 146 142 141 152 164 170 182 166 159 189 160 140 94 113 126 132 242 241 154 177 167 177 175 176 160 172 173 166 171 176 190 194
160 162 166 167 162 164 169 172 175 172 164 159 161 155 165 177 175 194 179 154 190 157 151 152 151 165 205 188 149 194 197 181 176 178 173 174 182 167 157 165 172 173 179
166 166 167 171 169 173 172 172 172 165 171 171 170 159 172 178 178 188 176 177 179 159 172 174 160 162 225 173 181 187 207 184 217 193 176 179 164 164 169 168 172 174 181
173 174 175 175 173 177 169 171 172 164 178 173 161 166 181 180 186 190 169 183 170 181 171 191 184 188 204 215 203 197 146 169 225 197 201 159 155 168 176 166 173 173 185
177 176 172 173 174 175 173 182 181 182 186 181 164 170 175 183 190 186 177 181 182 191 167 196 185 190 191 213 200 202 194 151 174 165 239 173 178 178 182 188 171 178 177
178 175 175 172 176 177 183 186 187 193 187 169 161 160 170 180 198 194 181 177 186 197 179 189 157 193 205 216 213 199 197 191 215 195 197 194 204 183 179 188 172 181 176
179 175 174 172 177 180 185 189 193 195 186 173 169 164 175 178 195 201 186 178 184 196 175 176 176 189 193 202 274 281 215 189 221 217 196 200 204 196 177 174 179 187 183